IR1CH-3 Weather Reports


time (UTC)temp
C
wind
direction
speed
KPH
gust
KPH
rain 1hr
cm
rain 24hr
cm
rain mn
cm
humidity
%
barometer
mb
20260508011123 14 0.0 0.0 0.00 0.00 0.00 99 1013.6
20260508004123 14 0.0 0.0 0.00 0.00 0.00 99 1013.8
20260508001123 14 0.0 0.0 0.00 0.00 0.00 99 1014.2
20260507234122 15 0.0 0.0 0.00 0.00 0.00 99 1014.4
20260507231122 15 0.0 0.0 0.00 0.00 0.00 99 1014.8
20260507224122 15 0.0 0.0 0.00 0.00 0.00 99 1014.9
20260507221121 15 0.0 0.0 0.00 0.00 0.00 99 1014.9
20260507214121 15 0.0 0.0 0.00 0.00 0.00 99 1014.8
20260507211121 15 0.0 0.0 0.00 0.00 0.00 99 1014.7
20260507204120 15 0.0 0.0 0.00 0.00 0.00 99 1014.5
20260507201120 16 0.0 0.0 0.00 0.00 0.00 99 1014.6
20260507194120 16 0.0 0.0 0.00 0.00 0.00 99 1014.3
20260507191119 16 0.0 0.0 0.00 0.00 0.00 99 1014.1
20260507184119 17 0.0 0.0 0.00 0.00 0.00 99 1013.9
20260507181119 17 0.0 0.0 0.00 0.00 0.00 97 1013.8
20260507174118 18 0.0 0.0 0.00 0.00 0.00 96 1013.7
20260507171118 17 0.0 0.0 0.00 0.00 0.00 96 1013.9
20260507164118 17 0.0 0.0 0.00 0.00 0.00 97 1013.8
20260507161117 18 0.0 0.0 0.00 0.00 0.00 90 1013.4
20260507154117 17 0.0 0.0 0.00 0.00 0.00 98 1013.8
20260507151117 18 0.0 0.0 0.00 0.00 0.00 90 1013.4
20260507144116 18 0.0 0.0 0.00 0.00 0.00 88 1013.5
20260507141116 18 0.0 0.0 0.00 0.00 0.00 82 1013.3
20260507134116 18 0.0 0.0 0.00 0.00 0.00 86 1013.7
20260507131115 18 0.0 0.0 0.00 0.00 0.00 87 1013.8
20260507124115 19 0.0 0.0 0.00 0.00 0.00 85 1013.5
20260507121115 19 0.0 0.0 0.00 0.00 0.00 81 1013.2
20260507114114 19 0.0 0.0 0.00 0.00 0.00 84 1013.4
20260507111114 20 0.0 0.0 0.00 0.00 0.00 84 1013.7
20260507104114 20 0.0 0.0 0.00 0.00 0.00 83 1013.5
20260507101113 19 0.0 0.0 0.00 0.00 0.00 86 1013.6
20260507094113 18 0.0 0.0 0.00 0.00 0.00 93 1013.5
20260507091113 18 0.0 0.0 0.00 0.00 0.00 85 1013.0
20260507084112 18 0.0 0.0 0.00 0.00 0.00 85 1012.9
20260507081112 18 0.0 0.0 0.00 0.00 0.00 83 1012.5
20260507074112 17 0.0 0.0 0.00 0.00 0.00 82 1012.3
20260507071112 17 0.0 0.0 0.00 0.00 0.00 86 1012.6
20260507064111 16 0.0 0.0 0.00 0.00 0.00 91 1012.5
20260507061111 16 0.0 0.0 0.00 0.00 0.00 88 1012.2
20260507054111 16 0.0 0.0 0.00 0.00 0.00 87 1012.0
20260507051110 13 0.0 0.0 0.00 0.00 0.00 98 1011.8
20260507044110 13 0.0 0.0 0.00 0.00 0.00 99 1011.7
20260507041110 13 0.0 0.0 0.00 0.00 0.00 99 1011.6
20260507034109 13 0.0 0.0 0.00 0.00 0.00 99 1011.4
20260507031109 13 0.0 0.0 0.00 0.00 0.00 99 1011.4
20260507024109 13 0.0 0.0 0.00 0.00 0.00 99 1011.3
20260507021108 13 0.0 0.0 0.00 0.00 0.00 99 1011.2
20260507014108 13 0.0 0.0 0.00 0.00 0.00 99 1011.2